Location: Chemnitz
(49.5500°N, 11.5830°E)
Time: 01:27:59
(UTC+02:00)

ISS - Visible Passes

Search period start: 27 May 2018 00:00
Search period end: 06 June 2018 00:00
Orbit: 402 x 407 km, 51.6° (Epoch: 27 May)

Date Brightness Start Highest point End Pass type
(mag) Time Alt. Az. Time Alt. Az. Time Alt. Az.
27 May -3.8 00:22:01 10° WNW 00:25:18 76° NNE 00:26:26 37° E visible
27 May -1.3 01:58:40 10° W 01:59:02 12° W 01:59:02 12° W visible
27 May -3.5 21:53:05 10° W 21:56:22 69° N 21:59:38 10° ENE visible
27 May -3.4 23:29:48 10° WNW 23:33:03 63° N 23:35:43 14° E visible
28 May -2.6 01:06:21 10° WNW 01:08:21 31° W 01:08:21 31° W visible
28 May -3.2 22:37:32 10° WNW 22:40:47 57° N 22:44:01 10° E visible
29 May -4.0 00:14:06 10° WNW 00:17:22 72° SSW 00:17:42 64° SSE visible
29 May -3.8 23:21:51 10° WNW 23:25:09 83° NNE 23:27:06 22° ESE visible
30 May -1.7 00:58:35 10° W 00:59:44 17° W 00:59:44 17° W visible
30 May -3.5 22:29:37 10° WNW 22:32:53 67° N 22:36:08 10° E visible
31 May -3.3 00:06:11 10° WNW 00:09:09 41° SW 00:09:09 41° SW visible
31 May -3.8 23:13:52 10° WNW 23:17:07 63° SSW 23:18:36 29° SE visible
01 Jun -3.9 22:21:36 10° WNW 22:24:53 89° SW 22:28:03 11° ESE visible
01 Jun -2.2 23:58:25 10° W 00:00:41 22° SW 00:00:41 22° SW visible
02 Jun -3.0 23:05:55 10° W 23:08:57 35° SSW 23:10:11 25° SSE visible
03 Jun -3.6 22:13:32 10° WNW 22:16:45 55° SSW 22:19:41 12° SE visible
03 Jun -1.4 23:51:22 10° WSW 23:52:20 12° SW 23:52:20 12° SW visible
04 Jun -2.0 22:58:11 10° W 23:00:37 19° SW 23:01:52 16° S visible
05 Jun -2.6 22:05:33 10° W 22:08:28 30° SSW 22:11:23 10° SSE visible
